Year,Month,Day,Hour,Minute,Value (Times are PST for temperature in C)
2016,08,25,00,00,19.60
2016,08,25,00,01,19.60
2016,08,25,00,02,19.60
2016,08,25,00,03,19.60
2016,08,25,00,04,19.60
2016,08,25,00,05,19.50
2016,08,25,00,06,19.50
2016,08,25,00,07,19.40
2016,08,25,00,08,19.40
2016,08,25,00,09,19.40
2016,08,25,00,10,19.40
2016,08,25,00,11,19.30
2016,08,25,00,12,19.30
2016,08,25,00,13,19.30
2016,08,25,00,14,19.30
2016,08,25,00,15,19.30
2016,08,25,00,16,19.30
2016,08,25,00,17,19.20
2016,08,25,00,18,19.20
2016,08,25,00,19,19.20
2016,08,25,00,20,19.20
2016,08,25,00,21,19.20
2016,08,25,00,22,19.20
2016,08,25,00,23,19.30
2016,08,25,00,24,19.30
2016,08,25,00,25,19.40
2016,08,25,00,26,19.40
2016,08,25,00,27,19.50
2016,08,25,00,28,19.50
2016,08,25,00,29,19.60
2016,08,25,00,30,19.60
2016,08,25,00,31,19.60
2016,08,25,00,32,19.60
2016,08,25,00,33,19.60
2016,08,25,00,34,19.60
2016,08,25,00,35,19.60
2016,08,25,00,36,19.60
2016,08,25,00,37,19.60
2016,08,25,00,38,19.50
2016,08,25,00,39,19.50
2016,08,25,00,40,19.50
2016,08,25,00,41,19.50
2016,08,25,00,42,19.50
2016,08,25,00,43,19.50
2016,08,25,00,44,19.50
2016,08,25,00,45,19.60
2016,08,25,00,46,19.60
2016,08,25,00,47,19.60
2016,08,25,00,48,19.60
2016,08,25,00,49,19.60
2016,08,25,00,50,19.60
2016,08,25,00,51,19.60
2016,08,25,00,52,19.60
2016,08,25,00,53,19.60
2016,08,25,00,54,19.60
2016,08,25,00,55,19.60
2016,08,25,00,56,19.50
2016,08,25,00,57,19.50
2016,08,25,00,58,19.50
2016,08,25,00,59,19.40
2016,08,25,01,00,19.40
2016,08,25,01,01,19.40
2016,08,25,01,02,19.30
2016,08,25,01,03,19.30
2016,08,25,01,04,19.30
2016,08,25,01,05,19.30
2016,08,25,01,06,19.30
2016,08,25,01,07,19.30
2016,08,25,01,08,19.30
2016,08,25,01,09,19.30
2016,08,25,01,10,19.30
2016,08,25,01,11,19.20
2016,08,25,01,12,19.20
2016,08,25,01,13,19.20
2016,08,25,01,14,19.20
2016,08,25,01,15,19.20
2016,08,25,01,16,19.20
2016,08,25,01,17,19.10
2016,08,25,01,18,19.10
2016,08,25,01,19,19.10
2016,08,25,01,20,19.00
2016,08,25,01,21,19.00
2016,08,25,01,22,18.90
2016,08,25,01,23,18.90
2016,08,25,01,24,18.90
2016,08,25,01,25,18.90
2016,08,25,01,26,18.90
2016,08,25,01,27,18.80
2016,08,25,01,28,18.80
2016,08,25,01,29,18.80
2016,08,25,01,30,18.80
2016,08,25,01,31,18.80
2016,08,25,01,32,18.70
2016,08,25,01,33,18.70
2016,08,25,01,34,18.70
2016,08,25,01,35,18.70
2016,08,25,01,36,18.60
2016,08,25,01,37,18.60
2016,08,25,01,38,18.60
2016,08,25,01,39,18.50
2016,08,25,01,40,18.50
2016,08,25,01,41,18.50
2016,08,25,01,42,18.50
2016,08,25,01,43,18.40
2016,08,25,01,44,18.40
2016,08,25,01,45,18.40
2016,08,25,01,46,18.40
2016,08,25,01,47,18.40
2016,08,25,01,48,18.40
2016,08,25,01,49,18.40
2016,08,25,01,50,18.30
2016,08,25,01,51,18.30
2016,08,25,01,52,18.30
2016,08,25,01,53,18.20
2016,08,25,01,54,18.20
2016,08,25,01,55,18.20
2016,08,25,01,56,18.20
2016,08,25,01,57,18.20
2016,08,25,01,58,18.20
2016,08,25,01,59,18.20
2016,08,25,02,00,18.20
2016,08,25,02,01,18.10
2016,08,25,02,02,18.10
2016,08,25,02,03,18.10
2016,08,25,02,04,18.10
2016,08,25,02,05,18.10
2016,08,25,02,06,18.10
2016,08,25,02,07,18.10
2016,08,25,02,08,18.20
2016,08,25,02,09,18.20
2016,08,25,02,10,18.20
2016,08,25,02,11,18.20
2016,08,25,02,12,18.20
2016,08,25,02,13,18.30
2016,08,25,02,14,18.30
2016,08,25,02,15,18.30
2016,08,25,02,16,18.30
2016,08,25,02,17,18.30
2016,08,25,02,18,18.40
2016,08,25,02,19,18.40
2016,08,25,02,20,18.40
2016,08,25,02,21,18.40
2016,08,25,02,22,18.40
2016,08,25,02,23,18.40
2016,08,25,02,24,18.50
2016,08,25,02,25,18.50
2016,08,25,02,26,18.60
2016,08,25,02,27,18.60
2016,08,25,02,28,18.60
2016,08,25,02,29,18.60
2016,08,25,02,30,18.60
2016,08,25,02,31,18.60
2016,08,25,02,32,18.50
2016,08,25,02,33,18.50
2016,08,25,02,34,18.40
2016,08,25,02,35,18.40
2016,08,25,02,36,18.40
2016,08,25,02,37,18.40
2016,08,25,02,38,18.50
2016,08,25,02,39,18.40
2016,08,25,02,40,18.40
2016,08,25,02,41,18.40
2016,08,25,02,42,18.40
2016,08,25,02,43,18.30
2016,08,25,02,44,18.30
2016,08,25,02,45,18.30
2016,08,25,02,46,18.30
2016,08,25,02,47,18.30
2016,08,25,02,48,18.20
2016,08,25,02,49,18.20
2016,08,25,02,50,18.20
2016,08,25,02,51,18.20
2016,08,25,02,52,18.10
2016,08,25,02,53,18.10
2016,08,25,02,54,18.10
2016,08,25,02,55,18.10
2016,08,25,02,56,18.10
2016,08,25,02,57,18.00
2016,08,25,02,58,18.00
2016,08,25,02,59,17.90
2016,08,25,03,00,17.90
2016,08,25,03,01,17.90
2016,08,25,03,02,17.90
2016,08,25,03,03,17.80
2016,08,25,03,04,17.80
2016,08,25,03,05,17.80
2016,08,25,03,06,17.80
2016,08,25,03,07,17.80
2016,08,25,03,08,17.80
2016,08,25,03,09,17.80
2016,08,25,03,10,17.70
2016,08,25,03,11,17.70
2016,08,25,03,12,17.70
2016,08,25,03,13,17.70
2016,08,25,03,14,17.60
2016,08,25,03,15,17.60
2016,08,25,03,16,17.60
2016,08,25,03,17,17.50
2016,08,25,03,18,17.50
2016,08,25,03,19,17.50
2016,08,25,03,20,17.50
2016,08,25,03,21,17.60
2016,08,25,03,22,17.60
2016,08,25,03,23,17.60
2016,08,25,03,24,17.60
2016,08,25,03,25,17.60
2016,08,25,03,26,17.70
2016,08,25,03,27,17.70
2016,08,25,03,28,17.80
2016,08,25,03,29,17.90
2016,08,25,03,30,17.90
2016,08,25,03,31,18.00
2016,08,25,03,32,18.10
2016,08,25,03,33,18.10
2016,08,25,03,34,18.10
2016,08,25,03,35,18.10
2016,08,25,03,36,18.20
2016,08,25,03,37,18.20
2016,08,25,03,38,18.20
2016,08,25,03,39,18.20
2016,08,25,03,40,18.20
2016,08,25,03,41,18.10
2016,08,25,03,42,18.10
2016,08,25,03,43,18.10
2016,08,25,03,44,18.00
2016,08,25,03,45,17.90
2016,08,25,03,46,17.90
2016,08,25,03,47,17.90
2016,08,25,03,48,17.80
2016,08,25,03,49,17.80
2016,08,25,03,50,17.80
2016,08,25,03,51,17.80
2016,08,25,03,52,17.80
2016,08,25,03,53,17.80
2016,08,25,03,54,17.80
2016,08,25,03,55,17.80
2016,08,25,03,56,17.80
2016,08,25,03,57,17.80
2016,08,25,03,58,17.80
2016,08,25,03,59,17.80
2016,08,25,04,00,17.90
2016,08,25,04,01,17.90
2016,08,25,04,02,18.00
2016,08,25,04,03,18.00
2016,08,25,04,04,18.00
2016,08,25,04,05,18.00
2016,08,25,04,06,18.10
2016,08,25,04,07,18.00
2016,08,25,04,08,18.10
2016,08,25,04,09,18.10
2016,08,25,04,10,18.10
2016,08,25,04,11,18.10
2016,08,25,04,12,18.10
2016,08,25,04,13,18.10
2016,08,25,04,14,18.10
2016,08,25,04,15,18.00
2016,08,25,04,16,18.00
2016,08,25,04,17,18.00
2016,08,25,04,18,17.90
2016,08,25,04,19,17.80
2016,08,25,04,20,17.80
2016,08,25,04,21,17.80
2016,08,25,04,22,17.70
2016,08,25,04,23,17.70
2016,08,25,04,24,17.70
2016,08,25,04,25,17.70
2016,08,25,04,26,17.70
2016,08,25,04,27,17.70
2016,08,25,04,28,17.70
2016,08,25,04,29,17.70
2016,08,25,04,30,17.70
2016,08,25,04,31,17.60
2016,08,25,04,32,17.60
2016,08,25,04,33,17.60
2016,08,25,04,34,17.60
2016,08,25,04,35,17.50
2016,08,25,04,36,17.50
2016,08,25,04,37,17.40
2016,08,25,04,38,17.40
2016,08,25,04,39,17.40
2016,08,25,04,40,17.30
2016,08,25,04,41,17.30
2016,08,25,04,42,17.30
2016,08,25,04,43,17.30
2016,08,25,04,44,17.30
2016,08,25,04,45,17.20
2016,08,25,04,46,17.20
2016,08,25,04,47,17.20
2016,08,25,04,48,17.20
2016,08,25,04,49,17.20
2016,08,25,04,50,17.20
2016,08,25,04,51,17.10
2016,08,25,04,52,17.10
2016,08,25,04,53,17.10
2016,08,25,04,54,17.10
2016,08,25,04,55,17.10
2016,08,25,04,56,17.10
2016,08,25,04,57,17.10
2016,08,25,04,58,17.10
2016,08,25,04,59,17.10
2016,08,25,05,00,17.00
2016,08,25,05,01,17.00
2016,08,25,05,02,16.90
2016,08,25,05,03,16.90
2016,08,25,05,04,16.90
2016,08,25,05,05,16.80
2016,08,25,05,06,16.80
2016,08,25,05,07,16.70
2016,08,25,05,08,16.70
2016,08,25,05,09,16.70
2016,08,25,05,10,16.70
2016,08,25,05,11,16.60
2016,08,25,05,12,16.60
2016,08,25,05,13,16.60
2016,08,25,05,14,16.50
2016,08,25,05,15,16.50
2016,08,25,05,16,16.40
2016,08,25,05,17,16.40
2016,08,25,05,18,16.30
2016,08,25,05,19,16.30
2016,08,25,05,20,16.30
2016,08,25,05,21,16.20
2016,08,25,05,22,16.20
2016,08,25,05,23,16.20
2016,08,25,05,24,16.10
2016,08,25,05,25,16.10
2016,08,25,05,26,16.10
2016,08,25,05,27,16.00
2016,08,25,05,28,16.00
2016,08,25,05,29,16.10
2016,08,25,05,30,16.10
2016,08,25,05,31,16.10
2016,08,25,05,32,16.10
2016,08,25,05,33,16.00
2016,08,25,05,34,16.00
2016,08,25,05,35,16.00
2016,08,25,05,36,15.90
2016,08,25,05,37,15.90
2016,08,25,05,38,15.90
2016,08,25,05,39,15.90
2016,08,25,05,40,15.90
2016,08,25,05,41,15.90
2016,08,25,05,42,15.90
2016,08,25,05,43,15.90
2016,08,25,05,44,15.90
2016,08,25,05,45,15.90
2016,08,25,05,46,15.90
2016,08,25,05,47,15.90
2016,08,25,05,48,15.90
2016,08,25,05,49,15.90
2016,08,25,05,50,15.90
2016,08,25,05,51,15.80
2016,08,25,05,52,15.80
2016,08,25,05,53,15.80
2016,08,25,05,54,15.80
2016,08,25,05,55,15.80
2016,08,25,05,56,15.80
2016,08,25,05,57,15.80
2016,08,25,05,58,15.80
2016,08,25,05,59,15.80
2016,08,25,06,00,15.80
2016,08,25,06,01,15.70
2016,08,25,06,02,15.70
2016,08,25,06,03,15.70
2016,08,25,06,04,15.70
2016,08,25,06,05,15.60
2016,08,25,06,06,15.60
2016,08,25,06,07,15.60
2016,08,25,06,08,15.60
2016,08,25,06,09,15.60
2016,08,25,06,10,15.50
2016,08,25,06,11,15.50
2016,08,25,06,12,15.50
2016,08,25,06,13,15.50
2016,08,25,06,14,15.50
2016,08,25,06,15,15.50
2016,08,25,06,16,15.50
2016,08,25,06,17,15.50
2016,08,25,06,18,15.60
2016,08,25,06,19,15.60
2016,08,25,06,20,15.60
2016,08,25,06,21,15.60
2016,08,25,06,22,15.60
2016,08,25,06,23,15.60
2016,08,25,06,24,15.60
2016,08,25,06,25,15.70
2016,08,25,06,26,15.60
2016,08,25,06,27,15.60
2016,08,25,06,28,15.60
2016,08,25,06,29,15.60
2016,08,25,06,30,15.60
2016,08,25,06,31,15.60
2016,08,25,06,32,15.60
2016,08,25,06,33,15.60
2016,08,25,06,34,15.60
2016,08,25,06,35,15.50
2016,08,25,06,36,15.50
2016,08,25,06,37,15.50
2016,08,25,06,38,15.50
2016,08,25,06,39,15.50
2016,08,25,06,40,15.50
2016,08,25,06,41,15.50
2016,08,25,06,42,15.40
2016,08,25,06,43,15.40
2016,08,25,06,44,15.40
2016,08,25,06,45,15.40
2016,08,25,06,46,15.50
2016,08,25,06,47,15.50
2016,08,25,06,48,15.50
2016,08,25,06,49,15.50
2016,08,25,06,50,15.60
2016,08,25,06,51,15.60
2016,08,25,06,52,15.60
2016,08,25,06,53,15.70
2016,08,25,06,54,15.70
2016,08,25,06,55,15.80
2016,08,25,06,56,15.90
2016,08,25,06,57,15.90
2016,08,25,06,58,15.90
2016,08,25,06,59,16.00
2016,08,25,07,00,16.00
2016,08,25,07,01,16.00
2016,08,25,07,02,16.10
2016,08,25,07,03,16.10
2016,08,25,07,04,16.10
2016,08,25,07,05,16.20
2016,08,25,07,06,16.20
2016,08,25,07,07,16.30
2016,08,25,07,08,16.30
2016,08,25,07,09,16.40
2016,08,25,07,10,16.40
2016,08,25,07,11,16.50
2016,08,25,07,12,16.60
2016,08,25,07,13,16.70
2016,08,25,07,14,16.70
2016,08,25,07,15,16.80
2016,08,25,07,16,16.80
2016,08,25,07,17,16.90
2016,08,25,07,18,17.00
2016,08,25,07,19,17.00
2016,08,25,07,20,17.10
2016,08,25,07,21,17.20
2016,08,25,07,22,17.20
2016,08,25,07,23,17.30
2016,08,25,07,24,17.30
2016,08,25,07,25,17.30
2016,08,25,07,26,17.40
2016,08,25,07,27,17.40
2016,08,25,07,28,17.40
2016,08,25,07,29,17.50
2016,08,25,07,30,17.50
2016,08,25,07,31,17.60
2016,08,25,07,32,17.60
2016,08,25,07,33,17.60
2016,08,25,07,34,17.70
2016,08,25,07,35,17.70
2016,08,25,07,36,17.80
2016,08,25,07,37,17.80
2016,08,25,07,38,17.90
2016,08,25,07,39,18.00
2016,08,25,07,40,18.00
2016,08,25,07,41,18.10
2016,08,25,07,42,18.20
2016,08,25,07,43,18.30
2016,08,25,07,44,18.30
2016,08,25,07,45,18.40
2016,08,25,07,46,18.50
2016,08,25,07,47,18.60
2016,08,25,07,48,18.70
2016,08,25,07,49,18.80
2016,08,25,07,50,18.80
2016,08,25,07,51,18.90
2016,08,25,07,52,19.00
2016,08,25,07,53,19.10
2016,08,25,07,54,19.20
2016,08,25,07,55,19.30
2016,08,25,07,56,19.40
2016,08,25,07,57,19.50
2016,08,25,07,58,19.60
2016,08,25,07,59,19.70
2016,08,25,08,00,19.80
2016,08,25,08,01,20.00
2016,08,25,08,02,20.10
2016,08,25,08,03,20.30
2016,08,25,08,04,20.50
2016,08,25,08,05,20.70
2016,08,25,08,06,20.90
2016,08,25,08,07,21.00
2016,08,25,08,08,21.20
2016,08,25,08,09,21.30
2016,08,25,08,10,21.40
2016,08,25,08,11,21.40
2016,08,25,08,12,21.50
2016,08,25,08,13,21.50
2016,08,25,08,14,21.60
2016,08,25,08,15,21.60
2016,08,25,08,16,21.70
2016,08,25,08,17,21.70
2016,08,25,08,18,21.70
2016,08,25,08,19,21.80
2016,08,25,08,20,21.80
2016,08,25,08,21,21.70
2016,08,25,08,22,21.70
2016,08,25,08,23,21.70
2016,08,25,08,24,21.70
2016,08,25,08,25,21.70
2016,08,25,08,26,21.70
2016,08,25,08,27,21.70
2016,08,25,08,28,21.60
2016,08,25,08,29,21.60
2016,08,25,08,30,21.50
2016,08,25,08,31,21.50
2016,08,25,08,32,21.40
2016,08,25,08,33,21.40
2016,08,25,08,34,21.40
2016,08,25,08,35,21.30
2016,08,25,08,36,21.30
2016,08,25,08,37,21.30
2016,08,25,08,38,21.30
2016,08,25,08,39,21.30
2016,08,25,08,40,21.30
2016,08,25,08,41,21.40
2016,08,25,08,42,21.40
2016,08,25,08,43,21.50
2016,08,25,08,44,21.60
2016,08,25,08,45,21.70
2016,08,25,08,46,21.80
2016,08,25,08,47,21.90
2016,08,25,08,48,22.10
2016,08,25,08,49,22.20
2016,08,25,08,50,22.30
2016,08,25,08,51,22.40
2016,08,25,08,52,22.40
2016,08,25,08,53,22.40
2016,08,25,08,54,22.50
2016,08,25,08,55,22.50
2016,08,25,08,56,22.60
2016,08,25,08,57,22.60
2016,08,25,08,58,22.60
2016,08,25,08,59,22.70
2016,08,25,09,00,22.80
2016,08,25,09,01,22.90
2016,08,25,09,02,22.90
2016,08,25,09,03,23.00
2016,08,25,09,04,23.00
2016,08,25,09,05,22.90
2016,08,25,09,06,22.90
2016,08,25,09,07,22.90
2016,08,25,09,08,22.90
2016,08,25,09,09,23.00
2016,08,25,09,10,23.00
2016,08,25,09,11,23.10
2016,08,25,09,12,23.10
2016,08,25,09,13,23.10
2016,08,25,09,14,23.20
2016,08,25,09,15,23.20
2016,08,25,09,16,23.20
2016,08,25,09,17,23.10
2016,08,25,09,18,22.90
2016,08,25,09,19,22.70
2016,08,25,09,20,22.60
2016,08,25,09,21,22.50
2016,08,25,09,22,22.30
2016,08,25,09,23,22.30
2016,08,25,09,24,22.20
2016,08,25,09,25,22.20
2016,08,25,09,26,22.30
2016,08,25,09,27,22.40
2016,08,25,09,28,22.50
2016,08,25,09,29,22.60
2016,08,25,09,30,22.80
2016,08,25,09,31,22.90
2016,08,25,09,32,23.00
2016,08,25,09,33,23.10
2016,08,25,09,34,23.20
2016,08,25,09,35,23.30
2016,08,25,09,36,23.40
2016,08,25,09,37,23.40
2016,08,25,09,38,23.40
2016,08,25,09,39,23.50
2016,08,25,09,40,23.60
2016,08,25,09,41,23.70
2016,08,25,09,42,23.80
2016,08,25,09,43,24.00
2016,08,25,09,44,24.00
2016,08,25,09,45,24.10
2016,08,25,09,46,24.10
2016,08,25,09,47,24.20
2016,08,25,09,48,24.10
2016,08,25,09,49,24.00
2016,08,25,09,50,23.80
2016,08,25,09,51,23.70
2016,08,25,09,52,23.60
2016,08,25,09,53,23.50
2016,08,25,09,54,23.30
2016,08,25,09,55,23.30
2016,08,25,09,56,23.20
2016,08,25,09,57,23.20
2016,08,25,09,58,23.20
2016,08,25,09,59,23.30
2016,08,25,10,00,23.40
2016,08,25,10,01,23.50
2016,08,25,10,02,23.60
2016,08,25,10,03,23.70
2016,08,25,10,04,23.90
2016,08,25,10,05,23.90
2016,08,25,10,06,24.00
2016,08,25,10,07,24.10
2016,08,25,10,08,24.20
2016,08,25,10,09,24.30
2016,08,25,10,10,24.40
2016,08,25,10,11,24.50
2016,08,25,10,12,24.60
2016,08,25,10,13,24.70
2016,08,25,10,14,24.80
2016,08,25,10,15,24.90
2016,08,25,10,16,24.90
2016,08,25,10,17,25.00
2016,08,25,10,18,25.00
2016,08,25,10,19,25.00
2016,08,25,10,20,25.00
2016,08,25,10,21,24.90
2016,08,25,10,22,24.80
2016,08,25,10,23,24.80
2016,08,25,10,24,24.90
2016,08,25,10,25,24.90
2016,08,25,10,26,24.90
2016,08,25,10,27,24.90
2016,08,25,10,28,24.90
2016,08,25,10,29,24.90
2016,08,25,10,30,25.00
2016,08,25,10,31,25.00
2016,08,25,10,32,24.90
2016,08,25,10,33,24.90
2016,08,25,10,34,25.00
2016,08,25,10,35,25.00
2016,08,25,10,36,25.00
2016,08,25,10,37,25.10
2016,08,25,10,38,25.20
2016,08,25,10,39,25.20
2016,08,25,10,40,25.30
2016,08,25,10,41,25.20
2016,08,25,10,42,25.20
2016,08,25,10,43,25.20
2016,08,25,10,44,25.20
2016,08,25,10,45,25.30
2016,08,25,10,46,25.30
2016,08,25,10,47,25.40
2016,08,25,10,48,25.50
2016,08,25,10,49,25.60
2016,08,25,10,50,25.60
2016,08,25,10,51,25.70
2016,08,25,10,52,25.60
2016,08,25,10,53,25.70
2016,08,25,10,54,25.70
2016,08,25,10,55,25.80
2016,08,25,10,56,25.80
2016,08,25,10,57,25.90
2016,08,25,10,58,25.90
2016,08,25,10,59,25.90
2016,08,25,11,00,25.90
2016,08,25,11,01,25.80
2016,08,25,11,02,25.70
2016,08,25,11,03,25.60
2016,08,25,11,04,25.60
2016,08,25,11,05,25.60
2016,08,25,11,06,25.60
2016,08,25,11,07,25.60
2016,08,25,11,08,25.60
2016,08,25,11,09,25.50
2016,08,25,11,10,25.30
2016,08,25,11,11,25.00
2016,08,25,11,12,24.80
2016,08,25,11,13,24.70
2016,08,25,11,14,24.50
2016,08,25,11,15,24.50
2016,08,25,11,16,24.40
2016,08,25,11,17,24.40
2016,08,25,11,18,24.50
2016,08,25,11,19,24.60
2016,08,25,11,20,24.70
2016,08,25,11,21,24.80
2016,08,25,11,22,24.80
2016,08,25,11,23,24.90
2016,08,25,11,24,24.90
2016,08,25,11,25,24.90
2016,08,25,11,26,24.90
2016,08,25,11,27,24.80
2016,08,25,11,28,24.80
2016,08,25,11,29,24.80
2016,08,25,11,30,24.70
2016,08,25,11,31,24.60
2016,08,25,11,32,24.50
2016,08,25,11,33,24.50
2016,08,25,11,34,24.30
2016,08,25,11,35,24.10
2016,08,25,11,36,23.90
2016,08,25,11,37,23.80
2016,08,25,11,38,23.80
2016,08,25,11,39,23.90
2016,08,25,11,40,23.80
2016,08,25,11,41,23.80
2016,08,25,11,42,23.80
2016,08,25,11,43,23.90
2016,08,25,11,44,23.90
2016,08,25,11,45,23.80
2016,08,25,11,46,23.70
2016,08,25,11,47,23.80
2016,08,25,11,48,23.70
2016,08,25,11,49,23.70
2016,08,25,11,50,23.70
2016,08,25,11,51,23.60
2016,08,25,11,52,23.60
2016,08,25,11,53,23.50
2016,08,25,11,54,23.50
2016,08,25,11,55,23.60
2016,08,25,11,56,23.70
2016,08,25,11,57,23.80
2016,08,25,11,58,23.90
2016,08,25,11,59,24.00
2016,08,25,12,00,24.10
2016,08,25,12,01,24.10
2016,08,25,12,02,24.00
2016,08,25,12,03,23.90
2016,08,25,12,04,23.90
2016,08,25,12,05,23.70
2016,08,25,12,06,23.60
2016,08,25,12,07,23.60
2016,08,25,12,08,23.50
2016,08,25,12,09,23.60
2016,08,25,12,10,23.70
2016,08,25,12,11,23.80
2016,08,25,12,12,23.90
2016,08,25,12,13,23.90
2016,08,25,12,14,23.90
2016,08,25,12,15,23.90
2016,08,25,12,16,23.80
2016,08,25,12,17,23.80
2016,08,25,12,18,23.70
2016,08,25,12,19,23.70
2016,08,25,12,20,23.60
2016,08,25,12,21,23.60
2016,08,25,12,22,23.60
2016,08,25,12,23,23.70
2016,08,25,12,24,23.80
2016,08,25,12,25,23.90
2016,08,25,12,26,24.10
2016,08,25,12,27,24.20
2016,08,25,12,28,24.10
2016,08,25,12,29,24.10
2016,08,25,12,30,24.00
2016,08,25,12,31,24.00
2016,08,25,12,32,24.00
2016,08,25,12,33,24.00
2016,08,25,12,34,24.00
2016,08,25,12,35,24.00
2016,08,25,12,36,24.10
2016,08,25,12,37,24.10
2016,08,25,12,38,24.20
2016,08,25,12,39,24.30
2016,08,25,12,40,24.30
2016,08,25,12,41,24.30
2016,08,25,12,42,24.30
2016,08,25,12,43,24.40
2016,08,25,12,44,24.50
2016,08,25,12,45,24.60
2016,08,25,12,46,24.80
2016,08,25,12,47,25.00
2016,08,25,12,48,25.20
2016,08,25,12,49,25.30
2016,08,25,12,50,25.30
2016,08,25,12,51,25.40
2016,08,25,12,52,25.50
2016,08,25,12,53,25.50
2016,08,25,12,54,25.60
2016,08,25,12,55,25.70
2016,08,25,12,56,25.80
2016,08,25,12,57,25.90
2016,08,25,12,58,26.00
2016,08,25,12,59,26.10
2016,08,25,13,00,26.20
2016,08,25,13,01,26.30
2016,08,25,13,02,26.30
2016,08,25,13,03,26.40
2016,08,25,13,04,26.50
2016,08,25,13,05,26.60
2016,08,25,13,06,26.70
2016,08,25,13,07,26.90
2016,08,25,13,08,26.90
2016,08,25,13,09,26.90
2016,08,25,13,10,26.90
2016,08,25,13,11,26.80
2016,08,25,13,12,26.70
2016,08,25,13,13,26.70
2016,08,25,13,14,26.70
2016,08,25,13,15,26.80
2016,08,25,13,16,26.90
2016,08,25,13,17,27.00
2016,08,25,13,18,27.10
2016,08,25,13,19,27.20
2016,08,25,13,20,27.30
2016,08,25,13,21,27.40
2016,08,25,13,22,27.40
2016,08,25,13,23,27.40
2016,08,25,13,24,27.30
2016,08,25,13,25,27.30
2016,08,25,13,26,27.10
2016,08,25,13,27,27.10
2016,08,25,13,28,27.10
2016,08,25,13,29,27.10
2016,08,25,13,30,27.20
2016,08,25,13,31,27.30
2016,08,25,13,32,27.30
2016,08,25,13,33,27.40
2016,08,25,13,34,27.30
2016,08,25,13,35,27.40
2016,08,25,13,36,27.40
2016,08,25,13,37,27.30
2016,08,25,13,38,27.30
2016,08,25,13,39,27.20
2016,08,25,13,40,27.10
2016,08,25,13,41,27.10
2016,08,25,13,42,27.10
2016,08,25,13,43,27.10
2016,08,25,13,44,27.10
2016,08,25,13,45,27.10
2016,08,25,13,46,27.10
2016,08,25,13,47,27.10
2016,08,25,13,48,27.00
2016,08,25,13,49,27.00
2016,08,25,13,50,26.90
2016,08,25,13,51,26.70
2016,08,25,13,52,26.70
2016,08,25,13,53,26.60
2016,08,25,13,54,26.50
2016,08,25,13,55,26.40
2016,08,25,13,56,26.30
2016,08,25,13,57,26.40
2016,08,25,13,58,26.40
2016,08,25,13,59,26.40
2016,08,25,14,00,26.30
2016,08,25,14,01,26.30
2016,08,25,14,02,26.20
2016,08,25,14,03,26.30
2016,08,25,14,04,26.30
2016,08,25,14,05,26.40
2016,08,25,14,06,26.50
2016,08,25,14,07,26.60
2016,08,25,14,08,26.60
2016,08,25,14,09,26.70
2016,08,25,14,10,26.80
2016,08,25,14,11,26.90
2016,08,25,14,12,26.90
2016,08,25,14,13,27.00
2016,08,25,14,14,27.00
2016,08,25,14,15,27.10
2016,08,25,14,16,27.00
2016,08,25,14,17,26.80
2016,08,25,14,18,26.90
2016,08,25,14,19,26.80
2016,08,25,14,20,26.90
2016,08,25,14,21,27.00
2016,08,25,14,22,27.10
2016,08,25,14,23,27.10
2016,08,25,14,24,27.20
2016,08,25,14,25,27.20
2016,08,25,14,26,27.30
2016,08,25,14,27,27.50
2016,08,25,14,28,27.60
2016,08,25,14,29,27.70
2016,08,25,14,30,27.70
2016,08,25,14,31,27.80
2016,08,25,14,32,27.90
2016,08,25,14,33,28.10
2016,08,25,14,34,28.00
2016,08,25,14,35,27.80
2016,08,25,14,36,27.70
2016,08,25,14,37,27.70
2016,08,25,14,38,27.70
2016,08,25,14,39,27.70
2016,08,25,14,40,27.80
2016,08,25,14,41,27.80
2016,08,25,14,42,27.70
2016,08,25,14,43,27.70
2016,08,25,14,44,27.60
2016,08,25,14,45,27.50
2016,08,25,14,46,27.40
2016,08,25,14,47,27.40
2016,08,25,14,48,27.40
2016,08,25,14,49,27.40
2016,08,25,14,50,27.40
2016,08,25,14,51,27.40
2016,08,25,14,52,27.30
2016,08,25,14,53,27.20
2016,08,25,14,54,27.20
2016,08,25,14,55,27.20
2016,08,25,14,56,27.30
2016,08,25,14,57,27.40
2016,08,25,14,58,27.40
2016,08,25,14,59,27.40
2016,08,25,15,00,27.50
2016,08,25,15,01,27.60
2016,08,25,15,02,27.80
2016,08,25,15,03,27.90
2016,08,25,15,04,28.00
2016,08,25,15,05,28.00
2016,08,25,15,06,28.10
2016,08,25,15,07,28.20
2016,08,25,15,08,28.30
2016,08,25,15,09,28.40
2016,08,25,15,10,28.40
2016,08,25,15,11,28.40
2016,08,25,15,12,28.50
2016,08,25,15,13,28.40
2016,08,25,15,14,28.40
2016,08,25,15,15,28.40
2016,08,25,15,16,28.40
2016,08,25,15,17,28.40
2016,08,25,15,18,28.50
2016,08,25,15,19,28.40
2016,08,25,15,20,28.40
2016,08,25,15,21,28.40
2016,08,25,15,22,28.30
2016,08,25,15,23,28.30
2016,08,25,15,24,28.30
2016,08,25,15,25,28.30
2016,08,25,15,26,28.40
2016,08,25,15,27,28.60
2016,08,25,15,28,28.70
2016,08,25,15,29,28.80
2016,08,25,15,30,28.80
2016,08,25,15,31,28.80
2016,08,25,15,32,28.80
2016,08,25,15,33,28.80
2016,08,25,15,34,28.80
2016,08,25,15,35,28.70
2016,08,25,15,36,28.60
2016,08,25,15,37,28.60
2016,08,25,15,38,28.50
2016,08,25,15,39,28.50
2016,08,25,15,40,28.40
2016,08,25,15,41,28.40
2016,08,25,15,42,28.50
2016,08,25,15,43,28.60
2016,08,25,15,44,28.70
2016,08,25,15,45,28.70
2016,08,25,15,46,28.70
2016,08,25,15,47,28.70
2016,08,25,15,48,28.80
2016,08,25,15,49,28.80
2016,08,25,15,50,28.80
2016,08,25,15,51,28.90
2016,08,25,15,52,29.00
2016,08,25,15,53,29.10
2016,08,25,15,54,29.10
2016,08,25,15,55,29.20
2016,08,25,15,56,29.30
2016,08,25,15,57,29.30
2016,08,25,15,58,29.30
2016,08,25,15,59,29.40
2016,08,25,16,00,29.50
2016,08,25,16,01,29.60
2016,08,25,16,02,29.70
2016,08,25,16,03,29.80
2016,08,25,16,04,29.80
2016,08,25,16,05,29.90
2016,08,25,16,06,30.00
2016,08,25,16,07,30.00
2016,08,25,16,08,30.10
2016,08,25,16,09,30.20
2016,08,25,16,10,30.20
2016,08,25,16,11,30.30
2016,08,25,16,12,30.40
2016,08,25,16,13,30.40
2016,08,25,16,14,30.50
2016,08,25,16,15,30.60
2016,08,25,16,16,30.70
2016,08,25,16,17,30.70
2016,08,25,16,18,30.70
2016,08,25,16,19,30.70
2016,08,25,16,20,30.60
2016,08,25,16,21,30.50
2016,08,25,16,22,30.50
2016,08,25,16,23,30.40
2016,08,25,16,24,30.40
2016,08,25,16,25,30.40
2016,08,25,16,26,30.30
2016,08,25,16,27,30.30
2016,08,25,16,28,30.30
2016,08,25,16,29,30.30
2016,08,25,16,30,30.40
2016,08,25,16,31,30.50
2016,08,25,16,32,30.60
2016,08,25,16,33,30.70
2016,08,25,16,34,30.80
2016,08,25,16,35,30.80
2016,08,25,16,36,30.90
2016,08,25,16,37,30.90
2016,08,25,16,38,30.90
2016,08,25,16,39,30.80
2016,08,25,16,40,30.80
2016,08,25,16,41,30.80
2016,08,25,16,42,30.80
2016,08,25,16,43,30.70
2016,08,25,16,44,30.60
2016,08,25,16,45,30.40
2016,08,25,16,46,30.30
2016,08,25,16,47,30.00
2016,08,25,16,48,29.90
2016,08,25,16,49,29.70
2016,08,25,16,50,29.60
2016,08,25,16,51,29.60
2016,08,25,16,52,29.60
2016,08,25,16,53,29.60
2016,08,25,16,54,29.50
2016,08,25,16,55,29.40
2016,08,25,16,56,29.40
2016,08,25,16,57,29.40
2016,08,25,16,58,29.40
2016,08,25,16,59,29.30
2016,08,25,17,00,29.40
2016,08,25,17,01,29.40
2016,08,25,17,02,29.40
2016,08,25,17,03,29.40
2016,08,25,17,04,29.40
2016,08,25,17,05,29.50
2016,08,25,17,06,29.60
2016,08,25,17,07,29.60
2016,08,25,17,08,29.70
2016,08,25,17,09,29.80
2016,08,25,17,10,29.80
2016,08,25,17,11,29.70
2016,08,25,17,12,29.70
2016,08,25,17,13,29.60
2016,08,25,17,14,29.60
2016,08,25,17,15,29.50
2016,08,25,17,16,29.50
2016,08,25,17,17,29.40
2016,08,25,17,18,29.50
2016,08,25,17,19,29.50